This is the latest recevied weather packets stored in our database for station/object IN3APK-3. If no packets are shown the sender has not sent any weather packets the latest 10 day(s).
| Time | Temp. | Humidity | Pressure | Rain* | Wind** | Luminosity | Snow |
|---|---|---|---|---|---|---|---|
| 1777326957 | 14.44° C | 43% | 1011.5 hPa | - | - | - | - |
| 1777326304 | 14.44° C | 43% | 1011.4 hPa | - | - | - | - |
| 1777325652 | 14.44° C | 43% | 1011.4 hPa | - | - | - | - |
| 1777324999 | 14.44° C | 43% | 1011.4 hPa | - | - | - | - |
| 1777324347 | 14.44° C | 43% | 1011.4 hPa | - | - | - | - |
| 1777323695 | 14.44° C | 42% | 1011.3 hPa | - | - | - | - |
| 1777323043 | 14.44° C | 42% | 1011.5 hPa | - | - | - | - |
| 1777322391 | 14.44° C | 42% | 1011.5 hPa | - | - | - | - |
| 1777321738 | 14.44° C | 42% | 1011.4 hPa | - | - | - | - |
| 1777321086 | 14.44° C | 42% | 1011.4 hPa | - | - | - | - |
| 1777320434 | 14.44° C | 42% | 1011.4 hPa | - | - | - | - |
| 1777319781 | 14.44° C | 41% | 1011.3 hPa | - | - | - | - |
| 1777319129 | 15° C | 41% | 1011.4 hPa | - | - | - | - |
| 1777318477 | 15° C | 41% | 1011.2 hPa | - | - | - | - |
| 1777317825 | 15° C | 40% | 1011.1 hPa | - | - | - | - |
| 1777317173 | 15.56° C | 40% | 1011.1 hPa | - | - | - | - |
| 1777316521 | 15.56° C | 40% | 1010.8 hPa | - | - | - | - |
| 1777315869 | 16.11° C | 39% | 1010.7 hPa | - | - | - | - |
| 1777315217 | 16.11° C | 39% | 1010.5 hPa | - | - | - | - |
| 1777314566 | 16.67° C | 39% | 1010.3 hPa | - | - | - | - |
| 1777313914 | 16.67° C | 38% | 1010.2 hPa | - | - | - | - |
| 1777313262 | 17.78° C | 38% | 1010.1 hPa | - | - | - | - |
| 1777312610 | 18.33° C | 37% | 1009.8 hPa | - | - | - | - |
| 1777311959 | 18.89° C | 37% | 1009.8 hPa | - | - | - | - |
| 1777311308 | 20° C | 36% | 1009.7 hPa | - | - | - | - |
* Rain since midnight (hover to see other rain measurements)
** Current wind speed in m/s (hover to see current wind gust speed)